This demonstration page uses our WeatherBlox Daily Observations layout. Learn more.

Left ArrowRight Arrow

34.02893, -84.19858

Hourly Observations for June 14, 2020

Temp ( °F °C ) Dew Point ( °F °C ) Humidity (%) Winds ( mph kmh ) Pressure ( in mb ) Visibility ( mi km ) Precip ( " mm )
12:53 am 00:53 Clear 66 18.9 63 17.2 90 90 Calm 30.09 1019 10 16 0.00 0.00
1:53 am 01:53 Clear 67 19.4 62 16.7 84 84 Calm 30.08 1019 10 16 0.00 0.00
2:53 am 02:53 Clear 67 19.4 59 15 76 76 ENE 3 6 30.08 1019 10 16 0.00 0.00
3:53 am 03:53 Clear 67 19.4 59 15 76 76 Calm 30.08 1019 10 16 0.00 0.00
4:53 am 04:53 Mostly Clear 65 18.3 60 15.6 84 84 NNE 5 7 30.09 1019 10 16 0.00 0.00
5:53 am 05:53 Clear 66 18.9 60 15.6 81 81 Calm 30.11 1020 10 16 0.00 0.00
6:53 am 06:53 Sunny 66 18.9 60 15.6 81 81 Calm 30.14 1021 10 16 0.00 0.00
7:53 am 07:53 Sunny 68 20 60 15.6 76 76 VRB 6 9 30.15 1021 10 16 0.00 0.00
8:53 am 08:53 Sunny 70 21.1 62 16.7 76 76 VRB 3 6 30.18 1022 10 16 0.00 0.00
9:53 am 09:53 Sunny 74 23.3 63 17.2 69 69 E 5 7 30.19 1022 10 16 0.00 0.00
10:53 am 10:53 Sunny 77 25 64 17.8 64 64 VRB 3 6 30.18 1022 10 16 0.00 0.00
11:53 am 11:53 Mostly Sunny 78 25.6 64 17.8 62 62 Calm 30.18 1022 10 16 0.00 0.00
12:53 pm 12:53 Mostly Cloudy 79 26.1 64 17.8 60 60 VRB 3 6 30.16 1022 10 16 0.00 0.00
1:53 pm 13:53 Mostly Cloudy 79 26.1 63 17.2 58 58 VRB 3 6 30.14 1021 10 16 0.00 0.00
2:53 pm 14:53 Mostly Cloudy 78 25.6 64 17.8 62 62 S 5 7 30.12 1020 10 16 0.00 0.00
3:53 pm 15:53 Cloudy with Light Rain 73 22.8 68 20 84 84 S 6 9 30.13 1020 10 16 0.08 2.03
4:41 pm 16:41 Partly Cloudy with Nearby Thunderstorms 75 23.9 68 20 79 79 SSE 5 7 30.11 1020 10 16 0.00 0.00
4:53 pm 16:53 Mostly Sunny 76 24.4 67 19.4 74 74 SSE 6 9 30.11 1020 10 16 0.00 0.00
5:21 pm 17:21 Sunny with Nearby Thunderstorms 74 23.3 67 19.4 79 79 Calm 30.11 1020 10 16 0.00 0.00
5:33 pm 17:33 Sunny with Thunderstorms 75 23.9 67 19.4 76 76 Calm 30.12 1020 10 16 0.00 0.00
5:48 pm 17:48 Partly Cloudy 79 26 68 20 70 70 E 5 7 30.10 1019 10 16 0.00 0.00
5:53 pm 17:53 Partly Cloudy with Nearby Thunderstorms 75 23.9 68 20 79 79 E 7 11 30.11 1020 10 16 0.00 0.00
6:12 pm 18:12 Partly Cloudy with Nearby Thunderstorms 74 23.3 63 17.2 69 69 VRB 6 9 30.12 1020 10 16 0.00 0.00
6:28 pm 18:28 Partly Cloudy with Thunderstorms 72 22.2 62 16.7 71 71 VRB 5 7 30.13 1020 10 16 0.00 0.00
6:44 pm 18:44 Partly Cloudy 73 22.8 63 17.2 71 71 Calm 30.12 1020 10 16 0.00 0.00
6:53 pm 18:53 Partly Cloudy with Nearby Thunderstorms 73 22.8 63 17.2 71 71 NNE 5 7 30.13 1020 10 16 0.00 0.00
7:34 pm 19:34 Cloudy with Thunderstorms 66 18.9 63 17.2 90 90 NNW 10 17 30.17 1022 3 4 0.06 1.52
7:42 pm 19:42 Cloudy with Thunderstorms 66 18.9 63 17.2 90 90 VRB 3 6 30.17 1022 4 6 0.08 2.03
7:53 pm 19:53 Cloudy with Thunderstorms 65 18.3 64 17.8 97 97 SE 5 7 30.15 1021 4 6 0.09 2.29
8:13 pm 20:13 Mostly Cloudy with Nearby Thunderstorms 65 18.3 65 18.3 100 100 Calm 30.17 1022 7 11 0.01 0.25
8:32 pm 20:32 Sunny 67 19.4 65 18.3 93 93 Calm 30.16 1021 8 13 0.01 0.25
8:53 pm 20:53 Mostly Cloudy with Light Rain 67 19.4 65 18.3 93 93 Calm 30.15 1021 10 16 0.01 0.25
9:53 pm 21:53 Partly Cloudy 65 18.3 63 17.2 93 93 Calm 30.17 1022 10 16 0.00 0.00
10:53 pm 22:53 Clear 63 17.2 63 17.2 100 100 Calm 30.17 1022 8 13 0.00 0.00
11:53 pm 23:53 Clear with Mist and Fog 62 16.7 62 16.7 100 100 Calm 30.15 1021 4 6 0.00 0.00

Powered by AerisWeather